{"data":{"norad_id":60532,"epoch":"2026-09-22T16:42:05.378976Z","epoch_age_seconds":99329,"freshness":"FRESH","line1":"1 60532U 24149BS  26265.69589559  .00001480  00000+0  13958-3 0  9994","line2":"2 60532  97.6767 338.6639 0002507  77.4515 282.6986 14.95270195114528","mean_motion":14.95270195,"eccentricity":0.0002507,"inclination_deg":97.6767,"raan_deg":338.6639,"arg_perigee_deg":77.4515,"mean_anomaly_deg":282.6986,"bstar":0.00013958,"rev_number":11452,"period_min":96.303665037609,"perigee_km":579.78942784667,"apogee_km":583.27900699509,"semimajor_km":6959.6712174209,"source":"CELESTRAK","updated_at":"2026-09-23T09:00:20.668854Z"}}